RH
62 63 65 66 67 65 64 64 66 68 73 77 78 78 76 72 68 64 64 66 67 71 75 74 75 76 74 73 74 78 83 88 90 88 87 86 83 81 83 84 84 83 79 78 80 75 69 70 64 56 56 55 52 51 51 55 59 60 59 58 57 58 59 59 59 58 57 57 56 57 60 57 50 46 46 45 44 45 44 42 38 33 29 24 20
62 64 64 64 64 64 62 61 61 64 71 80 87 86 81 77 73 68 68 68 68 70 74 74 74 74 74 73 73 75 81 86 88 89 88 87 83 82 84 85 85 83 78 78 84 81 71 66 61 56 56 55 52 51 52 55 57 56 56 56 57 58 57 57 58 58 57 57 56 56 58 56 50 48 46 45 45 45 45 44 41 38 34 30 25
54 54 55 54 54 54 55 56 58 60 66 75 85 87 84 80 76 73 72 70 70 71 72 73 72 73 77 77 73 73 78 82 84 86 87 85 83 82 84 85 84 82 78 76 81 82 72 63 59 56 55 54 52 52 53 56 57 56 55 56 56 58 57 56 57 57 56 57 57 56 55 53 49 48 47 45 46 46 46 46 44 42 39 35 30
46 45 45 45 45 45 45 48 53 57 61 67 74 79 80 79 76 74 74 73 73 73 72 72 72 74 78 78 74 72 76 79 79 82 85 85 83 82 83 85 85 83 79 76 78 80 73 63 59 57 56 55 53 52 54 57 59 61 63 62 59 59 59 57 56 57 57 57 57 56 54 52 50 50 50 50 50 49 47 46 44 42 40 37 33
41 41 41 41 41 41 41 42 46 51 55 60 65 69 73 75 75 74 75 75 76 77 75 74 76 78 79 77 74 72 74 75 76 77 82 84 84 82 83 86 88 84 78 75 79 79 71 63 60 59 57 56 55 54 55 58 62 65 66 64 61 59 59 57 56 57 58 58 60 59 57 54 52 52 53 54 53 51 47 45 43 42 40 38 34
40 40 40 40 40 39 39 40 41 44 48 52 57 60 64 68 71 72 73 74 75 77 76 75 77 80 80 77 75 73 73 73 74 74 77 81 84 85 86 88 89 84 76 75 81 78 70 65 63 60 58 56 55 55 56 60 66 67 64 61 59 58 58 57 55 57 61 62 63 64 62 58 57 57 57 57 55 51 47 45 43 42 41 39 33
40 39 39 38 38 37 37 37 38 40 42 46 50 54 56 60 64 68 69 70 71 73 73 72 73 77 80 78 75 74 72 72 74 74 75 81 86 88 89 89 87 84 78 79 84 79 72 69 67 62 59 58 57 58 60 63 65 65 63 61 60 58 58 58 56 58 68 75 76 75 72 69 67 65 62 61 60 55 50 47 43 40 40 39 34
42 41 39 38 37 36 36 35 35 36 39 43 47 50 52 54 57 61 64 65 67 69 69 69 69 72 77 78 76 75 74 73 76 76 77 83 89 90 89 88 86 83 80 83 88 83 76 73 70 65 63 61 61 62 64 65 65 66 65 63 62 61 60 60 58 60 70 77 79 77 74 72 71 69 67 67 65 60 55 52 46 38 37 38 35
44 42 41 39 38 37 37 35 35 36 38 41 44 48 52 54 54 56 59 61 63 64 66 67 67 68 72 75 75 75 76 78 78 77 79 86 91 90 88 88 87 83 81 85 87 83 78 76 72 69 68 67 65 65 65 66 67 68 67 66 68 65 62 62 60 59 63 65 65 68 67 67 70 72 73 72 69 65 61 57 50 41 38 40 39
46 44 43 41 39 39 37 36 37 39 42 43 44 48 53 56 57 57 58 60 61 62 64 65 66 69 72 75 75 74 76 80 81 80 81 85 88 88 86 86 85 83 84 87 85 80 79 79 75 72 71 69 68 66 66 67 68 68 67 69 71 68 64 62 59 56 56 57 60 65 68 71 77 81 81 78 74 70 65 60 53 46 42 42 42
48 46 45 43 41 40 39 40 41 44 46 46 47 51 55 58 60 61 61 61 62 63 64 65 67 70 73 76 76 74 77 84 86 84 82 83 86 86 85 86 85 83 85 88 83 79 79 79 75 72 69 67 66 66 67 66 64 64 64 66 69 70 67 65 63 59 57 59 62 67 72 76 80 82 80 77 74 71 68 62 57 51 44 40 40
49 49 47 46 44 43 43 44 46 47 49 49 49 52 56 59 61 62 62 63 63 64 65 67 68 70 71 74 75 76 82 88 90 86 84 85 86 85 84 85 84 83 86 87 83 79 76 74 71 68 64 61 60 60 63 64 61 59 58 58 62 65 65 65 66 66 65 65 67 71 75 78 79 79 79 78 76 74 72 67 61 57 51 46 45
51 51 51 50 48 47 47 48 48 48 50 52 54 56 58 61 63 64 64 64 64 65 66 67 69 70 72 74 77 83 89 92 92 88 87 87 85 83 83 82 79 80 82 80 76 73 69 66 63 60 56 55 55 56 59 61 59 56 54 54 55 56 59 62 64 66 67 68 70 75 79 79 81 83 84 85 84 79 75 70 65 62 58 54 53
50 51 52 52 52 50 50 50 49 48 51 55 59 62 64 66 67 69 69 66 65 65 66 69 72 74 75 78 84 91 94 94 93 92 90 88 85 83 82 78 74 75 73 66 63 64 63 62 60 58 56 57 59 61 61 60 57 53 51 51 51 54 59 63 65 65 67 67 70 76 81 83 85 86 85 86 84 78 74 70 67 64 62 61 61
49 49 51 52 52 51 52 52 51 50 53 57 60 65 69 71 72 75 74 71 67 67 69 73 77 78 78 83 91 97 97 96 96 93 88 86 84 81 78 73 69 69 67 62 61 64 67 68 68 66 65 66 68 69 66 63 59 55 53 53 55 58 62 65 65 66 67 67 70 75 80 84 85 84 81 80 77 74 73 73 72 70 70 69 67
49 49 49 49 50 51 52 53 52 51 53 55 58 62 67 71 74 77 78 75 71 71 72 76 82 84 86 91 97 99 98 96 94 91 87 84 81 76 73 71 70 71 70 69 70 72 75 76 76 75 73 74 78 78 74 68 62 58 58 59 62 67 70 70 68 67 66 66 68 71 74 77 78 79 78 77 76 76 77 77 77 76 75 74 71
51 50 49 49 49 50 51 52 52 51 51 52 55 58 62 69 76 80 81 79 76 75 78 83 90 94 96 98 99 99 99 96 91 89 87 83 79 77 76 76 76 75 74 75 76 78 79 79 79 78 76 77 82 84 80 71 64 62 63 67 72 76 77 75 72 69 67 66 66 68 71 74 77 78 79 79 79 79 80 80 79 77 76 75 72
52 52 52 51 50 51 52 53 53 52 51 51 52 55 59 70 81 88 88 85 82 83 87 91 96 100 99 98 99 99 98 95 90 87 87 85 83 83 83 81 78 75 75 76 78 79 80 80 80 80 79 79 82 85 81 73 67 64 65 69 75 77 77 76 75 73 72 71 72 74 78 81 84 86 86 85 82 80 79 77 75 72 71 69 68
54 54 55 55 54 52 53 55 54 54 53 52 51 53 57 67 81 91 94 92 91 93 95 96 97 99 98 98 99 99 95 92 90 88 88 89 89 87 85 82 79 78 79 79 79 80 80 80 81 80 80 81 82 84 81 73 69 70 70 72 76 77 78 80 81 81 80 80 82 86 89 90 91 91 89 86 81 76 73 71 70 69 67 65 65
58 57 58 59 58 56 55 56 55 54 55 56 54 55 58 63 72 84 93 96 96 96 96 96 96 96 97 97 98 97 92 90 90 90 90 91 92 88 85 84 83 83 83 83 82 82 81 81 82 82 81 82 83 85 83 77 73 76 81 83 84 84 84 87 90 90 89 89 89 91 92 91 89 86 84 82 79 75 71 69 68 66 64 63 62
62 59 58 60 61 60 59 58 57 55 55 57 59 60 61 64 68 75 83 89 93 94 95 96 94 94 95 96 96 95 93 92 93 93 94 94 93 90 87 87 87 86 85 85 84 83 83 84 84 84 85 86 87 87 86 79 72 73 79 84 87 89 90 92 94 93 91 90 87 84 82 82 81 81 81 79 75 70 65 63 63 63 63 64 64
65 61 59 59 61 62 61 60 59 58 57 56 59 62 64 66 69 72 77 81 86 91 95 95 93 92 92 93 94 93 93 93 94 95 95 94 92 91 90 90 89 87 86 85 85 85 86 87 88 87 89 91 91 90 86 79 71 70 75 79 82 83 84 86 87 86 83 80 77 72 69 68 67 68 68 67 64 62 62 63 65 65 64 63 60
65 63 61 62 63 64 64 63 61 61 61 59 60 63 65 65 67 71 76 79 83 89 94 96 95 94 94 94 93 93 92 92 94 95 96 95 93 92 93 92 91 91 89 88 88 89 90 90 90 91 93 94 92 89 85 82 79 78 78 78 77 77 77 77 77 76 74 70 67 64 61 58 57 57 59 62 64 66 67 66 64 60 57 55 53
65 64 63 64 66 67 68 67 65 66 67 66 65 66 67 66 65 68 73 78 80 86 93 96 95 95 96 95 94 94 93 93 94 96 97 97 95 94 94 94 94 93 93 92 93 93 92 92 93 95 97 95 92 89 89 88 87 85 81 77 75 74 73 72 70 69 67 64 62 62 61 61 62 63 66 68 67 65 62 58 55 53 51 49 46
68 67 65 66 67 69 70 70 68 68 70 71 70 70 69 68 67 67 70 76 78 81 86 91 94 95 96 95 96 96 97 97 98 99 99 98 97 96 96 96 96 96 96 96 96 95 94 93 94 95 94 90 88 89 91 90 87 84 80 76 75 76 75 73 70 67 65 64 65 66 66 65 65 64 63 61 57 54 52 49 48 46 43 42 41
71 70 69 68 68 70 72 73 72 71 71 71 71 72 71 70 69 68 70 74 78 80 82 85 89 92 95 95 95 96 96 96 96 97 97 97 98 97 97 98 98 98 97 96 96 95 94 93 93 92 89 84 81 84 88 86 83 82 80 78 78 78 77 75 72 70 68 67 65 63 61 58 56 54 52 51 49 48 47 44 43 42 42 42 42
75 74 73 72 71 71 72 73 73 73 73 73 72 73 74 73 71 71 71 72 76 80 83 85 86 89 92 94 95 94 95 95 95 95 94 94 94 94 94 94 94 94 94 94 93 93 93 92 91 90 87 83 81 82 85 86 84 82 81 81 81 80 79 78 74 70 66 63 58 54 51 49 48 48 47 47 46 46 45 45 45 45 44 43 41
74 76 77 76 76 75 74 73 73 73 74 75 76 76 77 76 76 75 73 72 74 77 81 85 87 88 91 94 96 96 96 96 96 96 96 96 95 94 94 93 92 92 92 92 92 92 92 92 90 88 86 85 85 85 87 87 86 84 84 85 85 83 78 73 67 60 56 54 52 51 50 50 50 49 48 48 47 47 47 47 46 44 42 39 37
66 71 74 77 79 80 78 77 76 75 74 75 77 79 79 79 80 81 79 78 78 78 79 82 85 88 90 93 96 98 98 97 97 97 98 98 98 98 98 97 97 96 96 95 95 94 94 92 90 89 88 88 87 87 87 87 87 87 86 84 80 74 67 62 58 55 54 53 53 53 53 52 52 51 51 51 50 49 48 45 42 39 37 36 36
57 61 66 70 74 77 78 78 79 79 79 77 77 79 80 79 80 82 83 82 82 82 82 83 86 88 90 93 96 98 99 99 99 98 98 98 99 99 99 98 98 98 97 97 96 95 94 92 91 90 90 89 88 88 88 86 84 80 76 71 67 63 60 58 58 57 57 56 55 55 54 54 53 53 52 51 48 45 42 39 37 37 37 39 42
51 55 59 62 66 69 73 75 76 78 81 81 81 81 82 80 79 80 81 81 82 83 83 83 84 87 89 91 95 98 99 100 100 100 99 99 99 99 99 99 98 96 95 95 94 93 91 91 90 90 89 89 87 84 81 77 72 67 64 63 63 62 61 60 59 58 57 57 56 55 55 54 53 50 47 44 41 38 37 36 37 38 39 41 42
41 46 51 55 59 62 65 68 71 74 76 79 81 83 84 84 83 83 83 82 82 83 83 82 81 83 86 89 93 97 99 100 100 100 100 100 100 100 100 99 97 96 95 93 91 90 89 89 89 88 86 83 80 76 73 71 69 69 68 68 67 65 63 61 59 58 58 57 56 55 54 51 48 44 41 38 37 37 38 38 38 38 39 38 37
31 35 40 45 49 52 56 59 64 67 69 72 76 80 82 84 85 86 87 87 86 86 87 88 86 84 85 88 91 95 97 98 98 99 100 100 99 99 98 97 96 96 96 94 92 91 90 88 86 84 82 79 77 77 77 77 77 76 73 70 67 65 63 61 61 60 59 58 55 52 48 45 42 40 38 38 38 38 38 38 38 37 36 35 36
28 30 32 35 37 41 44 48 53 58 63 66 70 73 76 81 84 84 85 87 88 88 89 92 93 91 90 90 91 94 96 97 97 98 99 99 99 99 98 97 96 95 95 93 92 91 90 87 84 82 81 80 80 79 78 76 75 73 70 68 66 64 63 62 60 58 55 52 48 45 42 40 38 38 38 38 38 37 37 37 36 35 34 35 38
28 28 30 31 32 33 34 36 40 45 52 59 63 67 70 75 80 83 83 83 85 87 88 90 92 94 95 94 94 95 97 98 99 99 100 99 99 100 100 99 97 96 95 93 93 92 89 86 84 83 81 79 78 76 74 72 71 69 67 65 64 62 60 58 54 50 47 44 42 41 39 38 37 37 37 38 37 37 36 35 35 35 35 36 38
28 29 30 32 33 32 31 31 33 37 44 51 56 61 66 70 74 79 82 82 82 85 87 88 90 92 93 94 94 95 95 97 98 99 99 99 99 99 99 99 98 97 95 93 92 90 88 85 84 82 80 79 78 76 74 72 70 68 66 64 61 58 55 51 47 44 42 41 40 39 38 37 37 37 37 37 37 36 36 36 37 37 36 35 35
30 32 34 34 35 36 35 34 33 35 40 47 53 58 63 66 69 73 77 80 81 83 85 87 89 91 92 91 92 93 93 94 95 96 96 96 96 95 95 96 96 94 92 91 90 87 85 83 82 81 80 80 79 77 75 73 71 68 64 61 57 53 50 47 44 43 41 40 39 39 38 38 38 38 37 38 37 38 37 37 38 37 35 33 34
31 33 35 37 38 39 39 39 38 37 39 44 51 58 62 65 66 69 72 75 78 81 82 84 86 88 89 88 88 89 90 91 92 93 93 92 92 92 92 93 93 92 90 88 87 86 83 82 81 80 79 78 77 75 73 70 67 63 59 55 52 49 47 45 43 42 41 40 40 40 40 40 39 38 38 38 39 39 39 38 38 37 35 34 35
33 34 35 36 38 39 40 40 41 41 40 41 45 51 57 62 64 66 67 71 74 76 77 78 80 82 82 82 83 84 85 86 87 88 89 90 91 92 93 93 93 92 91 89 88 86 84 83 82 81 80 78 75 72 68 64 60 57 54 51 49 47 45 44 43 42 42 42 41 41 40 40 39 38 38 39 39 40 40 39 37 38 37 36 35
37 37 37 37 37 38 39 39 40 42 43 42 42 43 46 51 57 61 63 67 71 72 70 71 74 75 74 74 76 79 81 81 82 83 84 86 89 92 94 94 93 92 91 89 87 85 84 83 81 80 79 76 72 69 65 61 58 55 53 50 49 47 46 46 45 44 43 42 41 40 40 40 40 40 40 40 39 39 39 38 37 36 36 34 33
40 41 41 40 39 38 38 40 41 42 42 42 43 43 42 42 46 51 54 58 63 64 65 68 72 71 69 68 70 72 73 76 79 81 82 84 87 90 91 90 89 89 87 84 82 81 79 78 76 74 72 69 66 63 60 58 55 53 51 50 48 47 47 46 45 44 43 41 40 40 40 40 41 41 40 40 40 39 38 38 37 36 35 34 33
39 41 41 42 42 42 41 41 42 43 43 43 44 46 45 43 43 45 46 48 50 52 56 63 69 69 66 66 68 66 66 70 76 79 80 81 83 86 86 85 85 85 82 80 78 76 75 73 71 68 65 63 60 58 56 54 52 51 50 49 48 46 45 45 43 42 41 40 39 40 40 41 41 41 40 39 39 39 38 37 36 35 34 33 33
34 35 35 37 40 43 43 43 43 43 45 45 44 46 48 48 46 46 47 47 46 44 46 54 62 62 60 63 66 64 62 67 74 77 77 76 77 79 80 81 81 80 79 78 76 75 73 70 67 64 62 60 57 55 53 51 50 50 48 47 46 44 43 42 41 40 40 39 38 39 40 40 41 41 40 39 39 38 37 36 35 34 33 33 34
31 31 31 33 36 38 40 40 41 41 42 43 44 46 48 48 45 44 46 50 51 48 45 48 55 56 53 54 57 59 59 64 73 76 75 73 73 73 74 75 76 76 76 76 74 72 70 67 65 62 59 56 54 52 50 49 48 47 46 44 43 43 41 40 40 40 39 37 37 38 39 40 41 41 41 40 39 38 37 36 35 34 32 33 35
29 27 28 31 34 35 36 36 37 37 37 39 41 43 45 45 42 40 42 49 54 56 55 53 54 55 51 47 48 51 53 58 66 73 73 71 71 72 72 72 73 74 74 74 71 69 66 64 62 59 56 53 51 49 48 47 46 45 44 43 42 40 39 38 39 40 39 37 37 38 40 41 42 41 40 40 40 38 36 36 35 34 32 33 36
25 25 27 31 34 35 35 35 34 33 32 35 39 42 42 40 38 40 44 48 53 60 64 64 60 59 56 51 47 49 51 52 57 64 69 68 68 70 71 72 72 73 72 70 67 65 62 60 57 54 51 49 47 45 44 44 43 42 40 39 37 36 35 35 36 38 39 38 37 38 40 41 41 39 38 37 38 37 36 36 35 34 33 34 38
24 25 29 33 35 36 36 36 35 34 32 34 37 39 37 35 36 42 50 55 56 59 65 69 67 65 64 60 54 53 54 53 53 57 62 64 66 68 70 71 72 71 68 66 64 61 58 54 50 47 44 42 40 39 37 36 35 34 33 32 32 31 32 32 33 36 38 38 38 38 38 38 39 38 37 36 36 36 36 35 36 37 37 38 40
25 25 30 36 38 36 34 34 35 36 36 35 35 34 33 31 34 43 55 61 61 61 65 69 69 66 66 64 61 59 59 58 57 56 58 61 64 67 68 68 68 67 65 62 59 55 50 45 42 40 40 39 38 37 36 35 33 32 31 30 30 30 31 31 33 35 37 38 38 38 37 37 37 37 36 36 36 36 36 36 37 39 41 40 41
28 27 30 37 42 40 35 32 33 34 35 35 34 33 31 30 33 43 57 63 63 63 67 72 71 67 65 65 66 67 66 63 61 60 58 58 61 64 65 65 65 64 62 57 51 45 41 40 39 40 40 40 39 38 38 37 36 35 33 32 32 33 33 34 36 38 39 39 40 40 40 39 39 38 38 37 37 37 37 38 39 41 42 42 42
33 30 30 34 40 42 41 38 36 34 34 34 33 33 32 31 32 40 54 62 63 63 67 72 74 73 69 67 69 73 74 70 66 63 60 57 56 57 58 61 62 60 55 48 42 39 38 39 40 41 41 40 40 39 38 38 38 38 37 37 37 37 38 38 39 40 42 43 43 44 44 43 43 42 41 41 40 40 40 41 41 42 44 45 44
37 35 32 31 33 36 40 42 41 38 35 34 34 33 33 34 34 39 49 59 63 64 66 70 74 77 77 73 70 73 75 73 70 66 62 58 56 54 55 56 57 54 47 41 38 38 39 40 41 41 40 39 38 37 36 36 36 37 37 38 39 40 41 41 41 41 42 43 44 46 46 46 45 44 42 41 41 40 40 41 42 43 44 46 45